[[{"header":{"parameterUnit":"m.s-1","parameterCategory":1,"la1":30.2991,"la2":30.254,"lo1":-89.0895,"lo2":-89.0444,"dy":0.0017,"dx":0.0017,"nx":28,"ny":28,"refTime":"2024-08-07T09:00:00:Z","depth":0,"parameterNumber":2,"parameterNumberName":"U-component_of_WINDS"},"data":[0,0,0,0,0,0,0,0,0,0,0,0,0,0,0,0,0,0,0,0,0,0,0,0,0,0,0,0,0,0,0,0,0,0,0,0,0,0,0,0,0,0,0,0,0,0,0,0,0,0,0,0,0,0,0,0,0,0,3.1255,3.1255,0,3.1273,3.1273,3.1274,3.1232,3.1231,3.123,3.1228,3.1246,3.1248,3.1249,0,0,0,0,0,0,0,0,0,0,0,0,0,3.1185,3.1187,3.1255,3.1255,3.1255,3.1273,3.1273,3.1274,3.1232,3.1231,3.1229,3.1228,3.1245,3.1247,3.1249,0,0,0,0,0,0,0,0,0,0,0,0,0,3.1211,3.1187,3.1255,3.1237,3.1236,3.1273,3.1273,3.1274,3.1233,3.1231,3.1229,3.1227,3.1245,3.1247,3.125,3.1305,0,0,3.1258,3.1259,0,0,0,0,0,0,0,0,3.1209,3.1213,3.1239,3.1238,3.1237,3.1248,3.1255,3.1284,3.1233,3.1234,3.1228,3.1226,3.1248,3.125,3.1258,3.1306,3.1307,3.1258,3.1259,3.126,3.1261,0,0,0,0,0,0,0,3.1207,3.1212,3.1262,3.124,3.1238,3.1228,3.123,3.126,3.1252,3.1234,3.1231,3.1233,3.1247,3.1256,3.1258,3.1307,3.1258,3.126,3.1261,3.1262,3.1403,3.1405,0,0,0,0,0,0,3.1208,3.1211,3.1261,3.1263,3.1218,3.1231,3.1233,3.1247,3.1251,3.125,3.1235,3.1232,3.1252,3.1255,3.1259,3.1325,3.126,3.1263,3.1264,3.1401,3.1403,3.1406,0,0,0,0,0,0,3.1207,3.1213,3.1261,3.1236,3.1241,3.1234,3.125,3.1248,3.1257,3.1253,3.1251,3.1246,3.1251,3.1255,3.1294,3.1325,3.1264,3.1266,3.1398,3.1402,3.1405,3.1458,0,0,0,0,0,0,3.1205,3.1213,3.1233,3.1237,3.1243,3.1296,3.1252,3.125,3.1261,3.1257,3.1262,3.1261,3.125,3.1291,3.1297,3.1327,3.1268,3.1395,3.14,3.1404,3.1453,3.1462,3.147,0,0,0,0,0,3.1202,3.1247,3.1234,3.1241,3.1269,3.1298,3.1301,3.1288,3.1264,3.1285,3.1283,3.1261,3.1321,3.1295,3.1302,3.1334,3.1393,3.1398,3.1403,3.1449,3.146,3.147,0,0,0,0,0,0,3.1246,3.1247,3.1233,3.128,3.1289,3.1291,3.1317,3.13,3.1316,3.1311,3.1293,3.1295,3.1338,3.1339,3.1311,3.1388,3.1353,3.136,3.1386,3.1396,3.1405,3.1404,3.127,0,0,0,0,0,3.1261,3.1285,3.1284,3.1326,3.1331,3.1324,3.1336,3.1325,3.1334,3.1337,3.1338,3.1347,3.1368,3.1382,3.1401,3.1453,3.1454,3.1479,3.1487,3.1494,3.15,3.1529,3.1541,3.1422,3.1422,3.1422,0,0,3.1292,3.1296,3.1312,3.1335,3.134,3.1366,3.1327,3.1355,3.1374,3.1341,3.1379,3.138,3.1389,3.1436,3.1456,3.1438,3.1533,3.15,3.1506,3.1508,3.1536,3.1547,3.1557,3.1426,3.1425,3.1424,0,0,3.1363,3.1367,3.1403,3.141,3.142,3.1415,3.1424,3.1429,3.1429,3.1466,3.1443,3.1465,3.1501,3.151,3.1519,3.1595,3.1576,3.1601,3.1646,3.1675,3.1684,3.1693,3.1721,3.1731,3.1607,3.1607,3.1608,0,3.14,3.1438,3.1423,3.1454,3.1465,3.1438,3.1475,3.1483,3.1498,3.1507,3.1487,3.1533,3.1538,3.1586,3.1605,3.1613,3.1623,3.1601,3.1684,3.1692,3.17,3.1727,3.1737,3.1611,3.161,3.161,3.161,0,3.1484,3.1511,3.1538,3.1556,3.157,3.1603,3.1595,3.1611,3.16,3.1597,3.1637,3.1641,3.1662,3.1672,3.1661,3.172,3.1709,3.1687,3.1651,3.1714,3.174,3.175,3.1615,3.1614,3.1613,3.1612,0,0,3.1581,3.1591,3.1602,3.161,3.162,3.1641,3.1674,3.1694,3.171,3.1722,3.1749,3.1782,3.1762,3.1773,3.1762,3.1787,3.1849,3.1762,3.1762,3.1779,3.1917,3.1934,3.1946,3.1837,3.1839,3.184,3.1916,0,3.1651,3.1708,3.1698,3.1753,3.1779,3.1754,3.1783,3.1793,3.1792,3.1813,3.1811,3.1836,3.1807,3.1813,3.1837,3.1837,3.1877,3.1831,3.1863,3.1864,3.1862,3.1959,3.1976,3.2048,3.1926,3.1927,3.1929,0,3.1741,3.1758,3.1817,3.1825,3.1835,3.1861,3.188,3.1901,3.1912,3.1909,3.1922,3.1908,3.1941,3.1905,3.1952,3.1921,3.1934,3.1935,3.1938,3.1941,3.19,3.1965,3.207,3.2081,3.1944,3.1942,3.1941,0,3.1807,3.1845,3.1885,3.1893,3.1903,3.1922,3.1927,3.1936,3.195,3.1967,3.1976,3.1997,3.2008,3.2024,3.2016,3.199,3.2065,3.2027,3.2064,3.2065,3.2081,3.208,3.219,3.2088,3.2088,3.2088,3.2087,0,3.1887,3.1924,3.1915,3.194,3.1982,3.1969,3.2011,3.2013,3.2022,3.2047,3.2027,3.2051,3.2038,3.2062,3.2055,3.2096,3.2101,3.21,3.2098,3.2102,3.2102,3.211,3.2105,3.2091,3.209,3.2089,3.2089,0,3.1968,3.1963,3.2006,3.2013,3.2016,3.2046,3.2052,3.2076,3.2074,3.2106,3.2113,3.211,3.2137,3.213,3.2159,3.2155,3.2206,3.2197,3.2203,3.2201,3.2238,3.2235,3.2358,3.2374,3.2261,3.2262,3.2263,0,3.202,3.2048,3.2059,3.2075,3.2082,3.2107,3.2122,3.2111,3.2128,3.2144,3.2166,3.2191,3.2211,3.2255,3.2255,3.2278,3.227,3.2312,3.2273,3.2277,3.2272,3.2271,3.2274,3.2319,3.232,3.2322,3.2322,0,3.2112,3.2109,3.2131,3.2154,3.2172,3.2189,3.2203,3.2217,3.2208,3.2228,3.2255,3.2271,3.2301,3.2327,3.2348,3.2354,3.2337,3.2335,3.2345,3.2349,3.2352,3.2352,3.2225,3.2332,3.2331,3.233,3.233,3.2329,3.2181,3.2206,3.2218,3.2244,3.2254,3.2269,3.2292,3.2294,3.2317,3.2341,3.2334,3.2366,3.2378,3.2405,3.2413,3.2438,3.2422,3.2436,3.244,3.2444,3.2449,3.2348,3.2442,3.2442,3.2441,3.2441,3.2441,0,3.2274,3.2281,3.2305,3.2327,3.2348,3.2331,3.2347,3.2365,3.2394,3.2407,3.2427,3.246,3.2486,3.2489,3.2513,3.2533,3.2526,3.2539,3.2538,3.254,3.2461,3.2451,3.2545,3.2545,3.2545,3.2545,3.2545,3.2545,3.2324,3.2366,3.2365,3.2412,3.2418,3.245,3.2461,3.2475,3.2485,3.2523,3.2545,3.2547,3.2556,3.2581,3.2604,3.2605,3.2615,3.2632,3.2629,3.2556,3.2545,3.2535,3.2526,3.2634,3.2634,3.2706,3.2707,3.2707]},{"header":{"parameterUnit":"m.s-1","parameterCategory":1,"la1":30.2991,"la2":30.254,"lo1":-89.0895,"lo2":-89.0444,"dy":0.0017,"dx":0.0017,"nx":28,"ny":28,"refTime":"2024-08-07T09:00:00:Z","depth":0,"parameterNumber":3,"parameterNumberName":"V-component_of_WINDS"},"data":[0,0,0,0,0,0,0,0,0,0,0,0,0,0,0,0,0,0,0,0,0,0,0,0,0,0,0,0,0,0,0,0,0,0,0,0,0,0,0,0,0,0,0,0,0,0,0,0,0,0,0,0,0,0,0,0,0,0,-1.7173,-1.7173,0,-1.7243,-1.7243,-1.7244,-1.7261,-1.7261,-1.7261,-1.726,-1.7331,-1.7333,-1.7335,0,0,0,0,0,0,0,0,0,0,0,0,0,-1.7055,-1.7057,-1.7173,-1.7174,-1.7174,-1.7242,-1.7243,-1.7244,-1.7262,-1.7261,-1.726,-1.726,-1.733,-1.7333,-1.7335,0,0,0,0,0,0,0,0,0,0,0,0,0,-1.7113,-1.7057,-1.7172,-1.7191,-1.7194,-1.7242,-1.7243,-1.7245,-1.7262,-1.7261,-1.726,-1.726,-1.7329,-1.7332,-1.7336,-1.737,0,0,-1.7346,-1.7348,0,0,0,0,0,0,0,0,-1.711,-1.7118,-1.7188,-1.719,-1.7193,-1.7243,-1.7228,-1.7287,-1.7262,-1.7236,-1.726,-1.7259,-1.7302,-1.7307,-1.7322,-1.7374,-1.7377,-1.7346,-1.7349,-1.735,-1.7351,0,0,0,0,0,0,0,-1.7106,-1.7115,-1.72,-1.7189,-1.7192,-1.7196,-1.7204,-1.7239,-1.7272,-1.7238,-1.7239,-1.7247,-1.7303,-1.7319,-1.7324,-1.7378,-1.7346,-1.7349,-1.7352,-1.7353,-1.7464,-1.7465,0,0,0,0,0,0,-1.7099,-1.7111,-1.7198,-1.7202,-1.7149,-1.7199,-1.7207,-1.7227,-1.7271,-1.7277,-1.7248,-1.7248,-1.7313,-1.732,-1.7326,-1.7372,-1.735,-1.7353,-1.7355,-1.7463,-1.7464,-1.7465,0,0,0,0,0,0,-1.7096,-1.7106,-1.7195,-1.7157,-1.7169,-1.7202,-1.7224,-1.7229,-1.7245,-1.7279,-1.7285,-1.7258,-1.7313,-1.7321,-1.736,-1.7374,-1.7355,-1.7358,-1.7462,-1.7463,-1.7464,-1.7461,0,0,0,0,0,0,-1.7093,-1.7105,-1.7118,-1.7157,-1.7171,-1.7228,-1.7225,-1.7231,-1.7251,-1.7251,-1.729,-1.7295,-1.7313,-1.7355,-1.7363,-1.7379,-1.7361,-1.7461,-1.7462,-1.7464,-1.746,-1.7462,-1.7464,0,0,0,0,0,-1.7088,-1.7114,-1.7119,-1.7129,-1.7188,-1.7228,-1.7236,-1.7256,-1.7252,-1.7266,-1.7288,-1.7294,-1.7371,-1.7358,-1.7368,-1.7385,-1.746,-1.7462,-1.7464,-1.746,-1.7462,-1.7464,0,0,0,0,0,0,-1.7075,-1.7119,-1.7125,-1.7164,-1.7193,-1.7231,-1.7249,-1.7258,-1.7287,-1.7287,-1.731,-1.7318,-1.7356,-1.7374,-1.7359,-1.7422,-1.7415,-1.7419,-1.7409,-1.7412,-1.7413,-1.7409,-1.7363,0,0,0,0,0,-1.7077,-1.7106,-1.7143,-1.7174,-1.7188,-1.7216,-1.7234,-1.7247,-1.7277,-1.7289,-1.7314,-1.7343,-1.7374,-1.7393,-1.7423,-1.7463,-1.7472,-1.7479,-1.7481,-1.7483,-1.7486,-1.7511,-1.7515,-1.7471,-1.7471,-1.7471,0,0,-1.708,-1.7108,-1.7125,-1.7172,-1.7195,-1.7225,-1.7226,-1.7257,-1.728,-1.7293,-1.7332,-1.7352,-1.7385,-1.7425,-1.7444,-1.7441,-1.75,-1.7485,-1.7486,-1.7489,-1.7513,-1.7517,-1.7521,-1.7473,-1.7472,-1.7472,0,0,-1.7103,-1.7126,-1.7156,-1.7179,-1.7215,-1.7234,-1.7241,-1.7279,-1.7293,-1.7332,-1.7344,-1.7371,-1.7423,-1.7447,-1.7466,-1.75,-1.7507,-1.7509,-1.7519,-1.7543,-1.7546,-1.755,-1.7563,-1.7568,-1.7512,-1.7512,-1.7512,0,-1.7103,-1.7149,-1.717,-1.7201,-1.7222,-1.7237,-1.7268,-1.7289,-1.7333,-1.7347,-1.7344,-1.7411,-1.7435,-1.7481,-1.749,-1.7504,-1.7514,-1.7505,-1.7544,-1.7548,-1.7551,-1.7564,-1.7569,-1.7512,-1.7512,-1.7512,-1.7512,0,-1.7148,-1.718,-1.7199,-1.7242,-1.7265,-1.7296,-1.7322,-1.7343,-1.7354,-1.7374,-1.7414,-1.7443,-1.7481,-1.7492,-1.7503,-1.7541,-1.7539,-1.754,-1.7534,-1.7555,-1.7568,-1.7573,-1.7512,-1.7512,-1.7512,-1.7512,0,0,-1.7164,-1.7219,-1.7226,-1.7247,-1.7288,-1.7313,-1.7345,-1.7382,-1.74,-1.743,-1.7458,-1.7503,-1.7505,-1.7526,-1.754,-1.756,-1.7588,-1.7559,-1.756,-1.7565,-1.7634,-1.7635,-1.764,-1.7593,-1.7594,-1.7595,-1.7632,0,-1.7193,-1.7251,-1.7271,-1.7319,-1.735,-1.7365,-1.7393,-1.7422,-1.7441,-1.747,-1.7491,-1.7524,-1.7522,-1.7536,-1.7557,-1.758,-1.7602,-1.7577,-1.762,-1.7622,-1.7613,-1.7647,-1.7647,-1.7681,-1.7637,-1.7638,-1.7639,0,-1.7234,-1.7266,-1.7317,-1.7357,-1.737,-1.7395,-1.7432,-1.7459,-1.7492,-1.7505,-1.753,-1.7543,-1.7578,-1.757,-1.7619,-1.7602,-1.762,-1.7635,-1.7636,-1.7642,-1.7632,-1.7655,-1.7692,-1.7698,-1.7647,-1.7646,-1.7645,0,-1.7243,-1.7298,-1.7337,-1.7354,-1.74,-1.7418,-1.7438,-1.747,-1.7492,-1.7524,-1.7539,-1.7574,-1.7594,-1.7621,-1.7644,-1.7635,-1.7692,-1.7684,-1.7704,-1.7704,-1.7716,-1.7716,-1.7758,-1.7726,-1.7726,-1.7726,-1.7725,0,-1.7274,-1.7305,-1.7342,-1.7365,-1.7402,-1.7425,-1.746,-1.7481,-1.7511,-1.7539,-1.7554,-1.7581,-1.7608,-1.7638,-1.7656,-1.7695,-1.7703,-1.7716,-1.772,-1.7715,-1.7714,-1.7729,-1.7728,-1.7727,-1.7727,-1.7726,-1.7726,0,-1.729,-1.7315,-1.7359,-1.74,-1.7411,-1.7436,-1.7471,-1.7495,-1.7516,-1.7552,-1.7562,-1.7594,-1.7631,-1.7656,-1.7703,-1.7715,-1.7758,-1.7761,-1.7747,-1.775,-1.7769,-1.7768,-1.7824,-1.7834,-1.7793,-1.7793,-1.7794,0,-1.7308,-1.7333,-1.7378,-1.7398,-1.7419,-1.7451,-1.7474,-1.7499,-1.7522,-1.7563,-1.7583,-1.7621,-1.7653,-1.7711,-1.7739,-1.7775,-1.778,-1.7798,-1.7786,-1.7781,-1.7783,-1.7782,-1.7786,-1.78,-1.78,-1.78,-1.7801,0,-1.734,-1.7352,-1.7384,-1.7422,-1.7449,-1.7479,-1.751,-1.7526,-1.7556,-1.7582,-1.762,-1.7645,-1.7694,-1.7732,-1.7771,-1.7792,-1.7802,-1.7804,-1.7811,-1.7807,-1.7799,-1.7806,-1.7754,-1.7803,-1.7803,-1.7803,-1.7802,-1.7802,-1.7359,-1.7383,-1.7418,-1.7455,-1.748,-1.7509,-1.7535,-1.7559,-1.7592,-1.7634,-1.7646,-1.7687,-1.7721,-1.7776,-1.7797,-1.783,-1.7828,-1.7838,-1.784,-1.7843,-1.7844,-1.7792,-1.7837,-1.7837,-1.7837,-1.7837,-1.7837,0,-1.7393,-1.7417,-1.745,-1.7493,-1.7522,-1.7529,-1.7564,-1.7588,-1.7624,-1.7655,-1.7687,-1.7732,-1.777,-1.7801,-1.784,-1.786,-1.7866,-1.787,-1.7869,-1.7874,-1.7842,-1.7833,-1.7865,-1.7865,-1.7865,-1.7865,-1.7865,-1.7865,-1.7414,-1.7455,-1.7471,-1.7526,-1.755,-1.759,-1.761,-1.7637,-1.7663,-1.7713,-1.7745,-1.7765,-1.7797,-1.7839,-1.7874,-1.7882,-1.7897,-1.79,-1.791,-1.7879,-1.7876,-1.7873,-1.7865,-1.7903,-1.7903,-1.7939,-1.794,-1.794]}]]